Hourly Weather Sudoly

Today, 22 January, Friday

Time Temperature Precipitation Wind Pressure Humidity
00:00 0°C° 0 mm 4 mps 741 mmHg 89%
01:00 0°C° 0 mm 4 mps 741 mmHg 89%
02:00 +1°C° 0 mm 4 mps 741 mmHg 89%
03:00 +1°C° 0 mm 4 mps 740 mmHg 88%
04:00 +1°C° 0 mm 4 mps 740 mmHg 88%
05:00 +1°C° 0 mm 4 mps 740 mmHg 88%
06:00 +1°C° 0 mm 5 mps 739 mmHg 88%
07:00 +1°C° 0 mm 5 mps 739 mmHg 88%
08:00 +2°C° 0 mm 5 mps 739 mmHg 87%
09:00 +3°C° 0 mm 6 mps 738 mmHg 86%
10:00 +3°C° 0 mm 7 mps 738 mmHg 85%
11:00 +4°C° 0 mm 7 mps 738 mmHg 83%
12:00 +4°C° 0 mm 7 mps 737 mmHg 81%
13:00 +5°C° 0 mm 7 mps 737 mmHg 80%
14:00 +4°C° 0 mm 6 mps 737 mmHg 81%
15:00 +3°C° 0 mm 6 mps 737 mmHg 82%
16:00 +3°C° 0 mm 6 mps 737 mmHg 83%
17:00 +3°C° 0 mm 6 mps 737 mmHg 84%
18:00 +3°C° 0 mm 5 mps 737 mmHg 86%
19:00 +3°C° 0 mm 5 mps 737 mmHg 87%
20:00 +3°C° 0 mm 5 mps 737 mmHg 88%
21:00 +2°C° 0 mm 5 mps 737 mmHg 88%
22:00 +2°C° 0 mm 5 mps 737 mmHg 89%
23:00 +2°C° 0 mm 5 mps 737 mmHg 89%

Tomorrow, 23 January, Saturday

Time Temperature Precipitation Wind Pressure Humidity
00:00 +3°C° 0 mm 5 mps 737 mmHg 89%
01:00 +3°C° 0 mm 5 mps 737 mmHg 89%
02:00 +4°C° 0 mm 4 mps 736 mmHg 89%
03:00 +3°C° 0 mm 4 mps 736 mmHg 90%
04:00 +3°C° 0 mm 4 mps 736 mmHg 90%
05:00 +3°C° 0 mm 4 mps 736 mmHg 90%
06:00 +3°C° 0 mm 4 mps 736 mmHg 90%
07:00 +3°C° 0 mm 4 mps 736 mmHg 90%
08:00 +3°C° 0 mm 5 mps 736 mmHg 88%
09:00 +4°C° 0 mm 6 mps 735 mmHg 86%
10:00 +5°C° 0 mm 6 mps 735 mmHg 85%
11:00 +5°C° 0 mm 7 mps 735 mmHg 83%
12:00 +6°C° 0 mm 7 mps 735 mmHg 81%
13:00 +6°C° 0 mm 7 mps 735 mmHg 79%
14:00 +6°C° 0 mm 7 mps 735 mmHg 79%
15:00 +5°C° 0 mm 8 mps 734 mmHg 78%
16:00 +5°C° 0 mm 8 mps 734 mmHg 78%
17:00 +5°C° 0 mm 7 mps 734 mmHg 79%
18:00 +5°C° 0 mm 6 mps 734 mmHg 79%
19:00 +4°C° 0 mm 6 mps 734 mmHg 80%
20:00 +5°C° 0 mm 5 mps 734 mmHg 82%
21:00 +5°C° 0 mm 5 mps 734 mmHg 83%
22:00 +5°C° 0 mm 5 mps 734 mmHg 85%
23:00 +4°C° 0 mm 4 mps 734 mmHg 87%

Day after tomorrow, 24 January, Sunday

Time Temperature Precipitation Wind Pressure Humidity
00:00 +4°C° 0 mm 3 mps 734 mmHg 89%
01:00 +4°C° 0 mm 2 mps 734 mmHg 92%
02:00 +4°C° 0 mm 2 mps 734 mmHg 91%
03:00 +3°C° 0 mm 2 mps 733 mmHg 90%
04:00 +3°C° 0 mm 2 mps 733 mmHg 90%
05:00 +3°C° 0.2 mm 2 mps 733 mmHg 90%
06:00 +2°C° 0.2 mm 2 mps 733 mmHg 90%
07:00 +2°C° 0.2 mm 2 mps 733 mmHg 90%
08:00 +2°C° 0.7 mm 2 mps 733 mmHg 92%
09:00 +1°C° 0.7 mm 2 mps 733 mmHg 94%
10:00 0°C° 0.7 mm 3 mps 733 mmHg 96%
11:00 0°C° 0.7 mm 3 mps 733 mmHg 96%
12:00 +1°C° 0.7 mm 2 mps 733 mmHg 97%
13:00 +1°C° 0.7 mm 2 mps 733 mmHg 97%
14:00 +1°C° 0.2 mm 2 mps 733 mmHg 97%
15:00 +1°C° 0.2 mm 2 mps 733 mmHg 97%
16:00 0°C° 0.2 mm 3 mps 733 mmHg 97%
17:00 -1°C° 0 mm 2 mps 734 mmHg 96%
18:00 -1°C° 0 mm 2 mps 734 mmHg 96%
19:00 -1°C° 0 mm 2 mps 735 mmHg 96%
20:00 -1°C° 0.1 mm 2 mps 735 mmHg 96%
21:00 -1°C° 0.1 mm 2 mps 735 mmHg 96%
22:00 -1°C° 0.1 mm 2 mps 735 mmHg 97%
23:00 -2°C° 0 mm 2 mps 736 mmHg 96%

25 January, Monday

Time Temperature Precipitation Wind Pressure Humidity
00:00 0°C° 0 mm 1 mps 736 mmHg 96%
01:00 -1°C° 0 mm 1 mps 736 mmHg 96%
02:00 -1°C° 0 mm 1 mps 736 mmHg 97%
03:00 -1°C° 0 mm 1 mps 736 mmHg 97%
04:00 0°C° 0 mm 1 mps 736 mmHg 97%
05:00 -1°C° 0 mm 1 mps 737 mmHg 96%
06:00 -1°C° 0 mm 1 mps 737 mmHg 96%
07:00 -1°C° 0 mm 1 mps 737 mmHg 95%
08:00 0°C° 0 mm 1 mps 737 mmHg 92%
09:00 -2°C° 0 mm 2 mps 738 mmHg 90%
10:00 -1°C° 0 mm 2 mps 738 mmHg 87%
11:00 -1°C° 0 mm 3 mps 737 mmHg 86%
12:00 -1°C° 0 mm 4 mps 737 mmHg 85%
13:00 -1°C° 0 mm 5 mps 737 mmHg 83%
14:00 -1°C° 0 mm 5 mps 737 mmHg 84%
15:00 -1°C° 0 mm 5 mps 737 mmHg 85%
16:00 -2°C° 0 mm 5 mps 737 mmHg 86%
17:00 -3°C° 0.1 mm 6 mps 738 mmHg 87%
18:00 -3°C° 0.1 mm 6 mps 738 mmHg 88%
19:00 -3°C° 0.1 mm 7 mps 738 mmHg 88%
20:00 -3°C° 0.2 mm 7 mps 738 mmHg 87%
21:00 -4°C° 0.2 mm 7 mps 738 mmHg 85%
22:00 -5°C° 0.2 mm 8 mps 738 mmHg 83%
23:00 -5°C° 0.1 mm 8 mps 738 mmHg 83%

26 January, Tuesday

Time Temperature Precipitation Wind Pressure Humidity
00:00 -5°C° 0.1 mm 8 mps 738 mmHg 83%
01:00 -5°C° 0.1 mm 8 mps 738 mmHg 82%
02:00 -5°C° 0 mm 8 mps 738 mmHg 82%
03:00 -5°C° 0 mm 8 mps 738 mmHg 81%
04:00 -5°C° 0 mm 8 mps 738 mmHg 81%
05:00 -5°C° 0 mm 8 mps 738 mmHg 81%
06:00 -5°C° 0 mm 8 mps 738 mmHg 81%
07:00 -5°C° 0 mm 8 mps 739 mmHg 81%
08:00 -5°C° 0 mm 8 mps 739 mmHg 82%
09:00 -5°C° 0 mm 9 mps 739 mmHg 83%
10:00 -4°C° 0 mm 9 mps 739 mmHg 84%
11:00 -4°C° 0.1 mm 9 mps 740 mmHg 82%
12:00 -4°C° 0.1 mm 9 mps 740 mmHg 80%
13:00 -4°C° 0.1 mm 8 mps 740 mmHg 78%
14:00 -4°C° 0 mm 8 mps 740 mmHg 78%
15:00 -4°C° 0 mm 8 mps 741 mmHg 78%
16:00 -3°C° 0 mm 7 mps 741 mmHg 78%
17:00 -3°C° 0 mm 7 mps 742 mmHg 80%
18:00 -4°C° 0 mm 7 mps 742 mmHg 82%
19:00 -4°C° 0 mm 7 mps 742 mmHg 84%
20:00 -4°C° 0 mm 7 mps 742 mmHg 84%
21:00 -4°C° 0 mm 7 mps 743 mmHg 84%
22:00 -4°C° 0 mm 7 mps 743 mmHg 84%
23:00 -4°C° 0 mm 7 mps 743 mmHg 83%

27 January, Wednesday

Time Temperature Precipitation Wind Pressure Humidity
00:00 -4°C° 0 mm 7 mps 743 mmHg 82%
01:00 -4°C° 0 mm 6 mps 743 mmHg 81%
02:00 -4°C° 0 mm 6 mps 743 mmHg 80%
03:00 -4°C° 0 mm 6 mps 743 mmHg 80%
04:00 -5°C° 0 mm 6 mps 743 mmHg 80%
05:00 -5°C° 0 mm 5 mps 743 mmHg 81%
06:00 -5°C° 0 mm 5 mps 744 mmHg 82%
07:00 -5°C° 0 mm 5 mps 744 mmHg 83%
08:00 -5°C° 0 mm 5 mps 744 mmHg 80%
09:00 -4°C° 0 mm 5 mps 744 mmHg 78%
10:00 -4°C° 0 mm 5 mps 744 mmHg 75%
11:00 -2°C° 0 mm 5 mps 744 mmHg 73%
12:00 -2°C° 0 mm 4 mps 744 mmHg 71%
13:00 -1°C° 0 mm 4 mps 743 mmHg 69%
14:00 -1°C° 0 mm 3 mps 743 mmHg 72%
15:00 -1°C° 0 mm 3 mps 744 mmHg 74%
16:00 -2°C° 0 mm 2 mps 744 mmHg 77%
17:00 -2°C° 0 mm 2 mps 744 mmHg 79%
18:00 -3°C° 0 mm 2 mps 744 mmHg 81%
19:00 -3°C° 0 mm 2 mps 744 mmHg 83%
20:00 -3°C° 0 mm 2 mps 744 mmHg 86%
21:00 -3°C° 0 mm 2 mps 745 mmHg 89%
22:00 -3°C° 0 mm 2 mps 745 mmHg 92%
23:00 -3°C° 0.2 mm 2 mps 745 mmHg 94%
Show more